• In Latvia
  • List of Countries
  • For 7 days
  • Water Temperature
  • Satellite Maps
  • Weather Map
  • Weather Widgets
  • user-avatar
    Login

    Hourly Weather University Park

    Today, 24 October, Wednesday

    Time Temperature Precipitation Wind Pressure Humidity
    00:00 +13°C° 0 mm 3 mps 751 mmHg 60%
    01:00 +13°C° 0 mm 3 mps 751 mmHg 61%
    02:00 +13°C° 0 mm 3 mps 751 mmHg 62%
    03:00 +13°C° 0 mm 3 mps 751 mmHg 63%
    04:00 +13°C° 0 mm 3 mps 751 mmHg 65%
    05:00 +13°C° 0 mm 3 mps 751 mmHg 66%
    06:00 +12°C° 0 mm 3 mps 751 mmHg 67%
    07:00 +13°C° 0.3 mm 3 mps 751 mmHg 68%
    08:00 +13°C° 0.3 mm 3 mps 751 mmHg 69%
    09:00 +13°C° 0.3 mm 3 mps 751 mmHg 70%
    10:00 +13°C° 1.6 mm 3 mps 751 mmHg 74%
    11:00 +13°C° 1.6 mm 4 mps 751 mmHg 77%
    12:00 +12°C° 1.6 mm 4 mps 751 mmHg 81%
    13:00 +12°C° 2.5 mm 4 mps 750 mmHg 84%
    14:00 +12°C° 2.5 mm 4 mps 750 mmHg 86%
    15:00 +12°C° 2.5 mm 4 mps 749 mmHg 88%
    16:00 +12°C° 1.4 mm 4 mps 749 mmHg 88%
    17:00 +12°C° 1.4 mm 4 mps 749 mmHg 88%
    18:00 +12°C° 1.4 mm 5 mps 749 mmHg 88%
    19:00 +13°C° 1 mm 4 mps 749 mmHg 89%
    20:00 +13°C° 1 mm 4 mps 749 mmHg 89%
    21:00 +13°C° 1 mm 4 mps 749 mmHg 90%
    22:00 +13°C° 0.2 mm 4 mps 749 mmHg 90%
    23:00 +13°C° 0.2 mm 3 mps 749 mmHg 90%

    Tomorrow, 25 October, Thursday

    Time Temperature Precipitation Wind Pressure Humidity
    00:00 +13°C° 0.2 mm 3 mps 748 mmHg 90%
    01:00 +13°C° 0.1 mm 3 mps 748 mmHg 90%
    02:00 +12°C° 0.1 mm 3 mps 748 mmHg 90%
    03:00 +12°C° 0.1 mm 3 mps 748 mmHg 90%
    04:00 +12°C° 0 mm 3 mps 747 mmHg 90%
    05:00 +12°C° 0 mm 3 mps 747 mmHg 90%
    06:00 +12°C° 0 mm 3 mps 747 mmHg 91%
    07:00 +12°C° 0 mm 3 mps 748 mmHg 89%
    08:00 +14°C° 0 mm 2 mps 748 mmHg 87%
    09:00 +14°C° 0 mm 2 mps 748 mmHg 85%
    10:00 +15°C° 0 mm 2 mps 748 mmHg 82%
    11:00 +16°C° 0 mm 2 mps 747 mmHg 79%
    12:00 +18°C° 0 mm 1 mps 747 mmHg 75%
    13:00 +17°C° 0 mm 2 mps 746 mmHg 74%
    14:00 +18°C° 0 mm 2 mps 746 mmHg 72%
    15:00 +18°C° 0 mm 2 mps 745 mmHg 70%
    16:00 +18°C° 0 mm 2 mps 745 mmHg 73%
    17:00 +17°C° 0 mm 2 mps 745 mmHg 75%
    18:00 +18°C° 0 mm 1 mps 745 mmHg 78%
    19:00 +16°C° 0 mm 1 mps 746 mmHg 79%
    20:00 +16°C° 0 mm 1 mps 746 mmHg 80%
    21:00 +16°C° 0 mm 1 mps 746 mmHg 81%
    22:00 +16°C° 0 mm 1 mps 746 mmHg 82%
    23:00 +15°C° 0 mm 1 mps 746 mmHg 84%

    Day after tomorrow, 26 October, Friday

    Time Temperature Precipitation Wind Pressure Humidity
    00:00 +15°C° 0 mm 1 mps 746 mmHg 85%
    01:00 +15°C° 0 mm 1 mps 746 mmHg 86%
    02:00 +14°C° 0 mm 1 mps 746 mmHg 87%
    03:00 +14°C° 0 mm 1 mps 746 mmHg 88%
    04:00 +14°C° 0 mm 1 mps 746 mmHg 88%
    05:00 +14°C° 0 mm 2 mps 746 mmHg 89%
    06:00 +14°C° 0 mm 2 mps 746 mmHg 90%
    07:00 +15°C° 0 mm 2 mps 747 mmHg 86%
    08:00 +16°C° 0 mm 2 mps 747 mmHg 83%
    09:00 +17°C° 0 mm 2 mps 748 mmHg 80%
    10:00 +19°C° 0 mm 2 mps 748 mmHg 74%
    11:00 +20°C° 0 mm 2 mps 747 mmHg 69%
    12:00 +22°C° 0 mm 3 mps 747 mmHg 64%
    13:00 +22°C° 0 mm 3 mps 747 mmHg 60%
    14:00 +24°C° 0 mm 3 mps 746 mmHg 56%
    15:00 +25°C° 0 mm 3 mps 746 mmHg 53%
    16:00 +24°C° 0 mm 2 mps 746 mmHg 56%
    17:00 +22°C° 0 mm 1 mps 746 mmHg 59%
    18:00 +21°C° 0 mm 1 mps 746 mmHg 63%
    19:00 +21°C° 0 mm 1 mps 746 mmHg 64%
    20:00 +20°C° 0 mm 1 mps 746 mmHg 65%
    21:00 +19°C° 0 mm 2 mps 746 mmHg 66%
    22:00 +19°C° 0 mm 2 mps 746 mmHg 67%
    23:00 +18°C° 0 mm 3 mps 746 mmHg 68%

    27 October, Saturday

    Time Temperature Precipitation Wind Pressure Humidity
    00:00 +18°C° 0 mm 3 mps 746 mmHg 69%
    01:00 +18°C° 0 mm 4 mps 746 mmHg 70%
    02:00 +18°C° 0 mm 4 mps 746 mmHg 70%
    03:00 +18°C° 0 mm 4 mps 745 mmHg 70%
    04:00 +17°C° 0 mm 4 mps 746 mmHg 69%
    05:00 +17°C° 0 mm 4 mps 746 mmHg 69%
    06:00 +17°C° 0 mm 3 mps 746 mmHg 68%
    07:00 +18°C° 0 mm 4 mps 746 mmHg 66%
    08:00 +19°C° 0 mm 4 mps 747 mmHg 63%
    09:00 +21°C° 0 mm 5 mps 748 mmHg 60%
    10:00 +22°C° 0 mm 4 mps 748 mmHg 56%
    11:00 +25°C° 0 mm 4 mps 747 mmHg 52%
    12:00 +26°C° 0 mm 4 mps 747 mmHg 48%
    13:00 +26°C° 0 mm 3 mps 747 mmHg 46%
    14:00 +27°C° 0 mm 3 mps 747 mmHg 44%
    15:00 +27°C° 0 mm 2 mps 746 mmHg 42%
    16:00 +26°C° 0 mm 2 mps 746 mmHg 46%
    17:00 +24°C° 0 mm 2 mps 746 mmHg 49%
    18:00 +23°C° 0 mm 1 mps 746 mmHg 52%
    19:00 +22°C° 0 mm 1 mps 747 mmHg 54%
    20:00 +21°C° 0 mm 2 mps 747 mmHg 57%
    21:00 +20°C° 0 mm 2 mps 747 mmHg 59%
    22:00 +19°C° 0 mm 2 mps 747 mmHg 61%
    23:00 +19°C° 0 mm 2 mps 747 mmHg 63%

    28 October, Sunday

    Time Temperature Precipitation Wind Pressure Humidity
    00:00 +19°C° 0 mm 2 mps 747 mmHg 65%
    01:00 +18°C° 0 mm 2 mps 747 mmHg 67%
    02:00 +18°C° 0 mm 2 mps 747 mmHg 70%
    03:00 +18°C° 0 mm 2 mps 746 mmHg 72%
    04:00 +18°C° 0 mm 2 mps 746 mmHg 75%
    05:00 +18°C° 0 mm 3 mps 746 mmHg 78%
    06:00 +18°C° 0 mm 3 mps 746 mmHg 80%
    07:00 +19°C° 0 mm 3 mps 747 mmHg 76%
    08:00 +20°C° 0 mm 4 mps 747 mmHg 71%
    09:00 +22°C° 0 mm 4 mps 748 mmHg 67%
    10:00 +23°C° 0 mm 5 mps 748 mmHg 63%
    11:00 +23°C° 0 mm 6 mps 748 mmHg 59%
    12:00 +24°C° 0 mm 7 mps 749 mmHg 56%
    13:00 +24°C° 0 mm 7 mps 749 mmHg 50%
    14:00 +23°C° 0 mm 7 mps 749 mmHg 44%
    15:00 +23°C° 0 mm 7 mps 749 mmHg 39%
    16:00 +21°C° 0 mm 6 mps 749 mmHg 40%
    17:00 +20°C° 0 mm 5 mps 750 mmHg 41%
    18:00 +18°C° 0 mm 4 mps 750 mmHg 42%
    19:00 +18°C° 0 mm 4 mps 751 mmHg 42%
    20:00 +17°C° 0 mm 4 mps 752 mmHg 42%
    21:00 +17°C° 0 mm 4 mps 752 mmHg 42%
    22:00 +15°C° 0 mm 5 mps 753 mmHg 42%
    23:00 +15°C° 0 mm 5 mps 753 mmHg 43%

    29 October, Monday

    Time Temperature Precipitation Wind Pressure Humidity
    00:00 +14°C° 0 mm 5 mps 753 mmHg 43%
    01:00 +14°C° 0 mm 5 mps 753 mmHg 45%
    02:00 +14°C° 0 mm 5 mps 753 mmHg 46%
    03:00 +13°C° 0 mm 6 mps 753 mmHg 47%
    04:00 +13°C° 0 mm 5 mps 754 mmHg 50%
    05:00 +12°C° 0 mm 5 mps 754 mmHg 52%
    06:00 +12°C° 0 mm 5 mps 754 mmHg 54%
    07:00 +12°C° 0 mm 5 mps 755 mmHg 55%
    08:00 +13°C° 0 mm 6 mps 755 mmHg 55%
    09:00 +13°C° 0 mm 6 mps 756 mmHg 56%
    10:00 +14°C° 0 mm 6 mps 755 mmHg 54%
    11:00 +15°C° 0 mm 6 mps 755 mmHg 53%
    12:00 +16°C° 0 mm 6 mps 755 mmHg 51%
    13:00 +17°C° 0 mm 6 mps 754 mmHg 50%
    14:00 +17°C° 0 mm 6 mps 754 mmHg 50%
    15:00 +19°C° 0 mm 5 mps 753 mmHg 49%
    16:00 +17°C° 0 mm 5 mps 753 mmHg 52%
    17:00 +15°C° 0 mm 4 mps 753 mmHg 56%
    18:00 +14°C° 0 mm 3 mps 753 mmHg 59%
    19:00 +14°C° 0 mm 3 mps 753 mmHg 61%
    20:00 +14°C° 0 mm 2 mps 754 mmHg 63%
    21:00 +14°C° 0 mm 2 mps 754 mmHg 65%
    22:00 +13°C° 0 mm 2 mps 754 mmHg 68%
    23:00 +13°C° 0 mm 2 mps 754 mmHg 70%

    30 October, Tuesday

    Time Temperature Precipitation Wind Pressure Humidity
    00:00 +12°C° 0 mm 2 mps 754 mmHg 73%
    01:00 +12°C° 0 mm 2 mps 754 mmHg 74%
    02:00 +10°C° 0 mm 2 mps 754 mmHg 75%
    03:00 +10°C° 0 mm 2 mps 754 mmHg 76%
    04:00 +10°C° 0 mm 2 mps 754 mmHg 76%
    05:00 +10°C° 0 mm 2 mps 754 mmHg 76%
    06:00 +9°C° 0 mm 2 mps 754 mmHg 77%
    07:00 +10°C° 0 mm 2 mps 754 mmHg 73%
    08:00 +12°C° 0 mm 2 mps 755 mmHg 69%
    09:00 +12°C° 0 mm 3 mps 755 mmHg 66%
    10:00 +14°C° 0 mm 3 mps 755 mmHg 61%
    11:00 +16°C° 0 mm 3 mps 754 mmHg 56%
    12:00 +17°C° 0 mm 3 mps 754 mmHg 51%
    13:00 +18°C° 0 mm 4 mps 753 mmHg 50%
    14:00 +18°C° 0 mm 4 mps 752 mmHg 49%
    15:00 +19°C° 0 mm 4 mps 751 mmHg 49%
    16:00 +17°C° 0 mm 4 mps 751 mmHg 53%
    17:00 +15°C° 0 mm 4 mps 751 mmHg 57%
    18:00 +14°C° 0 mm 4 mps 751 mmHg 62%
    19:00 +14°C° 0 mm 4 mps 751 mmHg 63%
    20:00 +13°C° 0 mm 4 mps 751 mmHg 65%
    21:00 +13°C° 0 mm 4 mps 751 mmHg 67%
    22:00 +13°C° 0 mm 4 mps 751 mmHg 67%
    23:00 +13°C° 0 mm 4 mps 750 mmHg 68%
    Show more